Wind_Speed
27 15 22 25 26 26 24 24 24 22 14 10 15 20 15 14 16 23 22 18 16 17 20 21 20 16 13 10 7 5 6 6 8 10 12 9 7 7 11 14 9 8 11 11
22 26 26 27 26 27 28 26 24 21 18 14 15 15 13 14 19 27 24 16 15 19 22 21 19 18 14 10 7 7 3 6 6 8 7 6 6 7 10 11 14 6 2 8
28 27 27 28 26 26 25 25 20 23 17 16 16 15 14 21 22 21 17 7 4 20 22 23 20 19 15 12 10 6 5 3 5 6 8 11 11 10 8 9 9 8 1 5
31 27 28 29 28 26 25 25 25 19 15 12 14 14 13 15 16 11 8 13 15 21 23 25 22 20 17 12 9 7 5 1 4 4 6 13 12 12 8 5 11 8 3 4
31 29 29 29 28 28 23 24 22 17 15 16 15 12 14 15 17 7 1 7 21 25 25 26 23 20 16 13 11 7 5 2 2 9 9 9 13 14 7 3 7 7 4 3
27 29 29 30 26 26 25 22 17 12 12 13 16 15 14 15 2 4 2 7 18 21 23 23 21 19 16 14 11 8 6 4 1 3 8 11 16 13 8 6 6 6 6 2
27 30 30 29 28 23 22 17 11 12 12 12 17 17 16 12 7 1 2 6 18 20 22 23 22 20 18 14 12 8 7 4 2 1 4 7 11 14 13 11 11 9 11 7
22 23 32 26 31 26 23 16 13 15 12 16 15 13 4 2 6 4 2 6 14 18 22 23 22 20 18 15 12 9 7 5 3 1 2 6 6 10 13 16 14 15 13 9
22 28 24 32 24 25 21 22 18 18 16 13 7 13 10 12 9 9 10 10 15 15 22 22 22 20 17 15 13 10 7 6 4 1 1 4 6 10 11 12 14 14 13 14
23 17 28 29 25 24 22 19 16 12 17 15 13 14 7 12 8 11 11 10 14 18 21 22 22 20 16 15 14 11 8 7 5 2 1 2 4 7 8 10 12 14 15 14
25 16 19 23 27 22 18 20 18 14 14 12 11 10 15 11 9 11 11 16 17 22 23 23 22 19 17 16 14 13 9 7 6 4 3 4 3 6 6 9 11 14 12 14
31 10 16 25 25 26 23 23 18 10 17 12 11 3 10 9 9 6 19 19 20 23 23 22 21 19 18 17 16 14 11 8 7 5 4 5 4 5 6 8 11 14 13 10
26 20 14 20 21 24 23 24 21 15 9 15 12 11 11 12 9 11 13 24 22 23 22 21 21 20 19 18 17 14 13 11 8 7 6 7 5 4 7 8 10 13 13 17
21 19 21 15 17 22 25 24 22 19 13 14 15 17 13 12 9 9 13 27 25 23 23 21 21 21 20 19 18 15 13 13 10 10 7 8 7 6 10 10 11 9 11 17
21 26 22 25 24 27 26 27 25 24 20 19 17 17 11 12 8 11 16 22 25 24 25 23 22 22 22 20 19 17 14 15 13 12 11 10 10 10 10 9 10 13 10 12
19 22 24 24 28 25 28 28 26 26 25 22 21 18 14 11 24 18 21 21 19 25 26 24 22 22 23 23 21 19 16 16 14 14 12 12 12 11 12 11 12 12 14 11
12 19 20 23 23 25 24 27 26 21 21 22 21 15 13 12 11 10 22 20 19 23 27 27 25 24 25 25 23 21 18 18 16 15 14 14 15 13 13 12 13 14 13 14
15 20 17 18 19 26 16 19 22 21 19 20 18 16 17 15 11 17 21 23 20 22 26 29 28 26 27 25 24 22 20 19 18 17 15 16 15 15 14 14 14 16 16 13
18 17 11 16 19 15 21 25 22 20 21 19 19 17 15 22 20 15 20 15 24 24 27 30 30 28 27 27 25 24 22 21 19 18 18 17 18 18 17 16 16 15 18 16
18 16 12 11 21 24 17 22 22 15 16 17 18 15 14 19 12 10 19 17 25 23 25 28 31 30 28 28 28 27 25 23 22 20 19 17 18 20 20 20 18 16 17 17
16 15 18 13 11 16 22 20 27 19 9 16 21 21 20 13 13 16 20 21 27 27 27 29 34 34 32 32 31 30 27 26 23 20 19 18 19 22 21 21 20 19 18 15
19 16 13 16 13 15 15 22 22 8 7 14 23 24 20 17 17 18 14 16 27 26 24 29 35 35 34 34 33 32 30 27 23 22 21 20 21 21 22 24 21 21 20 17
8 12 12 12 13 5 12 10 17 14 16 12 27 26 25 22 21 20 14 13 22 21 23 27 32 33 35 35 37 35 31 28 25 23 23 24 23 21 23 26 25 22 23 18
12 11 3 17 11 19 17 18 23 19 15 18 18 25 25 23 23 20 18 21 20 19 23 28 31 33 35 35 35 35 31 30 27 26 26 26 25 22 24 22 26 25 24 24
7 11 14 12 7 15 16 14 26 20 20 19 14 18 24 27 25 23 20 19 18 19 26 26 30 33 35 35 35 34 32 32 30 29 28 29 28 23 25 22 23 25 23 26
1 3 6 5 17 10 15 3 25 19 24 20 16 17 19 18 20 20 21 17 18 21 26 27 25 28 31 32 34 35 35 34 34 32 32 32 30 27 27 26 23 19 21 18
Wind_Direction
220 225 227 224 225 236 243 248 249 252 239 267 233 240 240 265 283 287 290 285 258 203 182 183 192 199 208 213 229 243 262 300 313 341 322 315 333 8 354 3 335 277 259 228
216 224 226 231 230 230 241 250 260 272 283 291 288 271 280 290 270 266 265 272 276 166 159 173 187 195 206 218 217 229 262 282 325 308 330 336 321 314 343 347 5 4 312 207
222 222 222 234 227 230 232 244 254 262 276 276 282 270 265 263 265 263 255 232 241 158 163 175 182 195 203 206 213 204 235 267 353 343 352 327 326 317 317 349 349 13 210 201
228 226 226 223 233 221 232 232 239 250 270 270 283 292 287 297 277 259 258 212 184 164 173 177 183 192 198 204 203 196 211 213 337 335 350 349 355 345 315 321 3 23 93 193
226 222 226 225 219 231 234 236 241 237 245 257 263 270 277 283 284 239 131 238 179 159 174 175 181 188 192 196 193 184 206 193 327 356 5 5 356 346 350 325 14 42 71 159
230 234 226 230 231 218 233 236 244 253 261 254 249 254 268 268 26 83 336 110 138 158 168 171 178 182 186 189 188 187 198 195 191 347 4 356 3 18 37 51 43 31 50 102
227 228 232 230 228 224 217 226 224 225 236 253 253 249 250 265 306 115 10 100 144 156 162 166 173 175 182 183 186 184 202 195 181 331 9 23 14 49 62 51 43 54 52 93
219 222 221 218 228 219 209 204 228 224 226 246 269 240 258 225 150 122 154 78 129 155 160 169 175 178 180 181 186 187 191 200 163 82 36 37 12 49 66 52 50 50 61 84
206 229 213 227 209 227 199 212 215 250 262 274 232 230 266 159 174 201 177 140 137 156 161 169 173 179 179 182 186 185 194 193 188 182 89 61 16 40 43 44 46 51 69 93
233 217 226 203 216 212 221 196 208 227 242 264 280 277 264 145 196 151 126 143 147 157 163 170 174 178 180 183 184 185 191 193 193 164 105 88 72 48 39 47 59 59 83 83
227 248 213 216 205 198 202 228 199 224 224 230 248 268 124 151 163 133 153 145 158 161 169 171 174 176 181 182 184 186 187 187 191 170 170 121 98 87 70 64 80 69 90 99
212 227 242 216 202 200 207 215 203 214 220 248 254 289 90 105 134 151 124 145 165 164 173 173 174 176 183 182 184 186 189 189 192 176 167 143 135 108 93 90 88 82 71 108
201 226 237 236 210 186 211 217 217 206 221 217 239 242 165 165 179 158 158 146 165 168 174 173 176 178 185 183 183 184 188 191 190 176 181 154 153 157 134 107 99 95 85 80
187 220 222 228 211 179 194 216 215 214 209 227 235 251 136 151 172 181 165 151 166 175 175 177 179 181 187 186 185 184 187 188 189 181 181 162 162 130 108 90 107 102 90 85
187 212 225 229 237 195 195 205 221 215 215 221 226 245 203 184 186 204 169 156 165 177 176 181 182 182 187 186 188 187 187 186 187 185 180 170 167 145 130 119 109 111 96 100
188 210 215 226 229 244 203 202 213 225 215 215 232 236 234 224 190 193 163 164 175 177 182 185 186 186 187 187 189 189 187 185 184 184 188 176 168 154 153 146 130 116 112 100
232 206 201 225 222 235 222 200 202 219 228 210 218 224 242 240 210 203 163 169 175 182 186 187 186 190 189 189 191 188 187 187 183 186 188 180 171 173 163 152 146 137 130 129
268 206 198 212 224 228 233 207 207 216 223 223 227 211 213 237 200 211 170 171 173 180 190 186 185 188 188 188 192 188 187 189 186 185 187 185 178 181 167 166 165 161 150 143
244 201 196 207 220 230 217 230 209 203 212 212 219 225 220 212 237 232 209 200 172 181 189 188 185 184 186 189 190 190 188 189 189 188 189 188 185 187 177 176 188 175 159 148
241 185 196 196 215 221 224 212 225 223 219 201 206 211 207 230 217 217 207 196 171 175 183 183 181 180 189 190 191 190 191 191 194 192 191 192 189 191 187 185 194 181 169 161
221 189 196 224 211 214 217 218 201 212 231 193 207 192 205 219 224 232 205 187 175 175 179 183 180 184 193 191 193 191 194 196 196 194 193 195 194 197 195 194 204 188 177 177
214 186 196 211 231 221 222 213 219 162 190 201 193 189 203 216 214 232 185 188 170 167 174 179 178 183 194 193 194 194 197 197 196 196 194 194 197 196 199 202 208 200 184 192
295 185 207 215 215 273 249 252 154 162 225 227 196 187 194 202 209 218 185 160 156 168 177 178 178 180 192 198 198 197 199 197 196 198 196 196 201 198 201 203 208 206 196 192
271 6 303 230 218 227 246 274 160 170 199 186 182 183 188 192 202 209 211 167 172 185 181 178 179 182 191 204 202 201 196 197 199 199 197 197 206 201 206 214 213 210 206 192
341 358 341 305 207 246 207 339 150 185 185 166 164 182 184 191 196 202 194 178 185 196 184 181 185 185 194 200 198 199 197 197 200 200 199 198 209 210 206 219 210 206 214 204
13 314 301 336 312 312 290 290 320 234 182 165 153 164 178 191 181 183 182 178 195 194 182 185 189 190 191 196 198 200 198 200 200 202 201 197 199 212 204 216 206 216 208 217
Height
1456 1457 1453 1450 1446 1450 1447 1443 1440 1429 1422 1440 1440 1435 1433 1435 1437 1437 1436 1436 1438 1441 1446 1454 1461 1468 1470 1472 1471 1472 1472 1470 1469 1467 1465 1462 1460 1458 1455 1452 1449 1447 1447 1447
1449 1442 1442 1442 1441 1444 1443 1443 1439 1428 1422 1426 1430 1430 1429 1431 1432 1431 1430 1431 1432 1436 1444 1451 1459 1465 1469 1470 1470 1471 1470 1470 1468 1466 1464 1462 1460 1458 1456 1453 1450 1447 1446 1446
1433 1426 1437 1435 1433 1438 1437 1439 1439 1436 1426 1425 1429 1432 1429 1424 1421 1421 1422 1425 1430 1435 1443 1450 1457 1463 1467 1468 1469 1469 1469 1468 1467 1466 1464 1462 1459 1457 1456 1454 1451 1447 1446 1447
1421 1424 1423 1427 1426 1427 1436 1426 1427 1429 1436 1449 1428 1447 1427 1422 1418 1413 1416 1420 1425 1431 1439 1447 1454 1460 1464 1467 1467 1467 1468 1468 1467 1466 1465 1462 1459 1456 1454 1453 1451 1448 1446 1448
1404 1411 1415 1413 1416 1416 1420 1416 1418 1422 1432 1436 1439 1446 1430 1416 1415 1408 1412 1415 1419 1427 1436 1443 1451 1458 1462 1465 1466 1467 1467 1468 1467 1466 1465 1463 1460 1456 1453 1453 1452 1450 1446 1448
1402 1402 1400 1401 1401 1404 1409 1414 1415 1421 1428 1445 1434 1438 1432 1420 1412 1410 1411 1413 1420 1427 1435 1443 1451 1456 1461 1464 1465 1466 1467 1467 1468 1467 1466 1464 1461 1457 1454 1454 1453 1451 1449 1448
1397 1394 1390 1393 1399 1396 1403 1415 1439 1451 1450 1449 1424 1431 1421 1405 1405 1407 1412 1415 1421 1428 1435 1443 1449 1454 1459 1462 1464 1466 1467 1468 1468 1468 1467 1466 1463 1460 1458 1456 1453 1452 1450 1450
1397 1401 1383 1378 1385 1394 1396 1410 1429 1455 1452 1438 1410 1429 1411 1398 1401 1407 1413 1418 1423 1428 1435 1442 1448 1453 1457 1461 1463 1465 1467 1468 1469 1468 1469 1467 1465 1463 1461 1459 1456 1454 1453 1452
1383 1382 1371 1374 1375 1382 1393 1409 1404 1423 1415 1424 1416 1408 1398 1396 1402 1405 1409 1417 1423 1429 1435 1441 1447 1452 1456 1459 1462 1465 1466 1468 1469 1469 1469 1469 1467 1465 1463 1462 1460 1458 1456 1456
1364 1380 1362 1364 1371 1374 1382 1389 1417 1417 1444 1447 1420 1408 1402 1402 1402 1401 1409 1417 1423 1429 1435 1441 1446 1451 1455 1458 1462 1464 1465 1467 1469 1469 1470 1470 1469 1468 1467 1464 1462 1461 1459 1460
1360 1363 1361 1355 1363 1374 1386 1389 1394 1406 1412 1431 1437 1413 1385 1393 1396 1402 1408 1415 1423 1427 1435 1440 1445 1450 1454 1457 1461 1463 1465 1467 1468 1470 1470 1471 1471 1470 1469 1467 1465 1464 1463 1463
1347 1356 1370 1354 1349 1360 1371 1382 1386 1409 1419 1407 1407 1413 1386 1390 1395 1401 1407 1414 1423 1427 1434 1438 1443 1448 1453 1456 1459 1462 1464 1466 1468 1470 1471 1471 1472 1472 1471 1470 1469 1467 1467 1466
1345 1360 1372 1363 1352 1354 1371 1374 1378 1387 1396 1407 1417 1408 1385 1389 1394 1398 1403 1411 1422 1425 1432 1437 1442 1447 1451 1455 1458 1461 1463 1466 1467 1470 1471 1472 1472 1472 1472 1472 1472 1473 1472 1471
1338 1347 1358 1360 1350 1352 1370 1371 1372 1383 1400 1404 1399 1392 1385 1391 1394 1397 1401 1407 1416 1423 1430 1435 1440 1445 1450 1453 1456 1459 1462 1465 1467 1469 1471 1472 1473 1474 1474 1475 1476 1477 1476 1476
1330 1349 1345 1346 1341 1341 1353 1365 1369 1375 1380 1394 1392 1390 1384 1386 1391 1393 1398 1405 1412 1419 1426 1432 1437 1442 1447 1451 1454 1458 1461 1463 1466 1469 1470 1473 1474 1475 1476 1478 1479 1480 1481 1480
1320 1340 1345 1347 1343 1338 1347 1351 1362 1365 1370 1380 1383 1385 1377 1380 1384 1388 1394 1401 1408 1415 1422 1428 1435 1439 1444 1448 1452 1456 1459 1462 1465 1468 1469 1473 1475 1476 1478 1479 1481 1483 1484 1485
1323 1326 1342 1353 1340 1341 1346 1341 1350 1359 1360 1367 1380 1378 1375 1376 1378 1383 1389 1396 1404 1411 1417 1424 1430 1436 1441 1445 1450 1453 1457 1460 1464 1467 1469 1472 1475 1477 1478 1480 1482 1485 1487 1488
1335 1322 1330 1347 1345 1361 1334 1327 1337 1349 1355 1357 1361 1365 1372 1374 1377 1382 1386 1392 1399 1405 1412 1419 1425 1432 1437 1443 1448 1452 1456 1459 1462 1466 1468 1471 1474 1477 1479 1481 1483 1485 1488 1490
1317 1315 1328 1343 1347 1341 1332 1329 1334 1344 1351 1351 1357 1361 1366 1371 1376 1378 1382 1387 1392 1399 1407 1414 1421 1428 1434 1440 1445 1450 1454 1457 1461 1464 1467 1469 1473 1475 1478 1481 1482 1485 1488 1491
1311 1308 1326 1334 1350 1352 1331 1324 1328 1330 1351 1342 1349 1356 1362 1367 1374 1374 1378 1384 1389 1396 1403 1410 1417 1424 1431 1437 1442 1447 1451 1454 1459 1462 1465 1468 1471 1474 1477 1480 1482 1484 1488 1491
1316 1315 1328 1332 1338 1331 1318 1316 1323 1346 1348 1337 1343 1351 1359 1364 1367 1371 1373 1379 1385 1391 1399 1406 1412 1418 1424 1432 1438 1443 1448 1451 1456 1460 1463 1466 1469 1472 1476 1479 1481 1484 1487 1491
1314 1320 1321 1330 1338 1342 1309 1314 1323 1325 1332 1334 1339 1346 1354 1360 1365 1369 1373 1377 1382 1388 1395 1401 1408 1414 1420 1428 1435 1440 1444 1449 1454 1458 1461 1463 1466 1470 1474 1477 1480 1483 1486 1490
1334 1307 1321 1317 1325 1313 1311 1312 1314 1322 1331 1333 1335 1342 1349 1357 1362 1366 1370 1374 1379 1386 1392 1399 1405 1412 1417 1423 1429 1435 1441 1447 1452 1456 1459 1461 1463 1468 1471 1474 1477 1481 1484 1487
1331 1335 1328 1322 1314 1316 1315 1317 1316 1323 1328 1330 1332 1338 1345 1352 1359 1363 1368 1372 1379 1385 1390 1395 1402 1408 1414 1418 1424 1431 1438 1444 1449 1452 1456 1458 1460 1465 1468 1471 1474 1477 1480 1484
1355 1344 1338 1329 1315 1314 1316 1321 1318 1325 1326 1327 1332 1336 1342 1349 1354 1359 1363 1369 1375 1382 1386 1393 1399 1404 1409 1415 1421 1426 1433 1439 1444 1449 1452 1454 1457 1462 1465 1467 1469 1473 1476 1480
1355 1363 1359 1347 1345 1330 1323 1330 1335 1329 1323 1326 1328 1333 1340 1345 1350 1356 1361 1368 1374 1378 1383 1390 1396 1401 1406 1412 1417 1422 1427 1433 1438 1443 1447 1450 1453 1458 1462 1464 1469 1472 1476 1478